Kosmos-894

operational
NORAD ID: 9846 Int'l Des: 1977-013 Owner: VMF Country: SU
LEOCIRCULARPOLAR

Über Kosmos-894

Beschreibung wird geladen...

Live-Position

3D-Globus wird geladen...

Nächste Überflüge

Höhenverlauf

Altitude vs Time

uPlot chart will show altitude changes over time

Zweizeiliger Elementsatz

1 9846U 77013A 25278.43246008 .00000096 00000-0 85719-4 0 9995
2 9846 82.9391 285.6034 0029465 196.0396 274.2441 13.74178557437184
Epoch: 5. Okt. 2025 • Age: 17 hours

Aktueller Status

Höhe 1007.0 km
Geschwindigkeit 7.35 km/s
Subsatellitenpunkt 76.47°N, 114.7°W
Typ other

Große Konstellationen

Loading constellations...